Regional Weather Roundup
Issued by NWS Newport/Morehead, NC

Current Version | Previous Version | Graphics & Text | Print | Product List | Glossary Off
Versions: 1 2 3 4 5 6 7 8 9 10 11 12 13 14 15 16 17 18 19 20 21 22 23 24 25 26 27 28 29 30 31 32 33 34 35 36 37 38 39 40 41 42 43 44 45 46 47 48 49 50

000
ASUS42 KMHX 210613
RWRMHX
WEATHER ROUNDUP FOR EASTERN NORTH CAROLINA
NATIONAL WEATHER SERVICE NEWPORT/MOREHEAD CITY NC
100 AM EST SAT JAN 21 2017

NOTE: "FAIR" INDICATES FEW OR NO CLOUDS BELOW 12,000 FEET
WITH NO SIGNIFICANT WEATHER AND/OR OBSTRUCTIONS TO VISIBILITY

NCZ015>017-031-032-045>047-102-103-210700-
NORTH COAST

CITY           SKY/WX    TMP DP  RH WIND       PRES   REMARKS
EDENTON        CLOUDY    51  50  93 CALM      29.93F FOG
ELIZABETH CITY CLOUDY    48  48 100 NW5       29.93S FOG
KITTY HAWK     NOT AVBL
MANTEO         FOG       47  47 100 N5        29.92S VSB 1/2

$$

NCZ045>047-081-094-103-104-210700-
CENTRAL COAST

CITY           SKY/WX    TMP DP  RH WIND       PRES   REMARKS
FRISCO         PTCLDY    51  49  92 VRB5      29.90F FOG

$$

NCZ095-097-098-100-101-210700-
SOUTHERN COAST

CITY           SKY/WX    TMP DP  RH WIND       PRES   REMARKS
BEAUFORT       MOCLDY    51  51 100 N6        29.90F
CEDAR ISLAND   NOT AVBL
JACKSONVILLE   PTCLDY    53  53 100 N6        29.90F
PINEY ISLAND   FOG      N/A N/A N/A N8        29.90F VSB 1/4
WILMINGTON     FOG       52  52 100 CALM      29.90F VSB 1/4


$$

NCZ011>013-027>030-043-044-078>080-089-090>093-098-210700-
COASTAL PLAIN

CITY           SKY/WX    TMP DP  RH WIND       PRES   REMARKS
AHOSKIE          N/A     48  48  98 CALM      29.94F FOG
CLINTON        PTCLDY    53  53 100 CALM      29.90F FOG
ELIZABETHTOWN  PTCLDY    53  53 100 CALM      29.90S
GOLDSBORO      FOG       52  52 100 NE3       29.89F VSB 3/4
GREENVILLE     CLOUDY    52  52 100 CALM      29.94F FOG
HAVELOCK       FOG       51  50  96 N6        29.92S VSB 1
KENANSVILLE    FOG       50  50 100 CALM      29.90F VSB 1/2
KINSTON        FOG       53  53 100 NE5       29.92F VSB 3/4
NEW BERN       FOG       50  49  96 NE9       29.92F VSB 1/2
RICHLANDS      MOCLDY    50  50 100 NE6       29.91F FOG
ROCKY MOUNT    CLOUDY    50  50 100 NE5       29.92F FOG
WASHINGTON     CLOUDY    49  49  99 CALM        N/A  FOG
WHITEVILLE     MOCLDY    53  52  96 CALM      29.90R

$$

AMZ130-135-150-152-154-156-158-170-250-252-270-ANZ085-086-088-633-658-670-210700-
MARINE OBSERVATIONS

STATION/POSITION TIME  TEMP    WIND        PRES    WAVE   SWELL
                       AIR SEA DIR/SP/G            HT/PER HT/PER
                 (UTC) (F)     (DEG/KT/KT) (MB)    (FT/S) (FT/S)
CHESAPEAKE LIGHT NOT AVBL
64 E VA BEACH    0550   56 58   10/ 14/ 16 1011.9    5/12   5/12
DUCK             0536      45  330/  7/  8 1012.4
2 E DUCK         0530      45                N/A     4/13   2/13
OREGON INLET     0536      49  310/  6/  8 1012.8
13E OREGON INLT  NOT AVBL
HATTERAS CG      0548          330/  8/ 10 1012.1
DIAMOND BUOY     0550   61 75  350/ 14/ 17 1011.9    5/10   3/10
CAPE LOOKOUT     0500   53     360/  8/ 10 1012.6
BEAUFORT LAB     0548           10/  5/  6 1011.6
30 SE NEW RVR IN 0508   60 62  330/  8/ 12 1012.7
30 SE NEW RVR IN 0543      62                N/A     4/13   2/13
27 SE WRIGHTSVLE 0508   66 71  270/ 10/ 14 1012.4
5 SE WRIGHTSVLE  0508   55     240/  4/  6 1012.7
225 S CAPE HAT   0550   72 70  240/ 14/ 17 1012.6    6/11   5/11
41 SE CHARLESTON 0450   69 68  210/  8/ 10 1012.9    2/13   2/13

$$




USA.gov is the U.S. government's official web portal to all federal, state and local government web resources and services.